Fayetteville, NC

9:36 PM EDT on July 23, 2016 (GMT -0400)
Fayetteville Regional-Grannis

Weather History for KFAY - April, 2014

Change the Weather History Date:

Thursday, April 17, 2014

  Actual Average Record
Temperature  
Mean Temperature 51 °F 63 °F  
Max Temperature 67 °F 75 °F 92 °F (1941)
Min Temperature 34 °F 51 °F 31 °F (1953)
Degree Days  
Heating Degree Days 14 4  
Month to date heating degree days 68 97  
Since 1 July heating degree days 2890 2666  
Cooling Degree Days 0 2  
Month to date cooling degree days 35 28  
Year to date cooling degree days 39 44  
Moisture  
Dew Point 36 °F    
Average Humidity 60    
Maximum Humidity 82    
Minimum Humidity 37    
Precipitation  
Precipitation 0.00 in 0.08 in 3.50 in (1933)
Month to date precipitation 1.35 1.76  
Year to date precipitation 11.71 11.37  
Sea Level Pressure  
Sea Level Pressure 30.44 in    
Wind  
Wind Speed 10 mph (NE)    
Max Wind Speed 18 mph    
Max Gust Speed 24 mph    
Visibility 10 miles    
Events      
T = Trace of Precipitation, MM = Missing Value Source: NWS Daily Summary

Daily Weather History Graph

Daily Weather History Graph

Search for Another Location

Airport or City:

Trip Planner

Search our weather history database for the weather conditions in past years. The results will help you decide how hot, cold, wet, or windy it might be!

Date:

Astronomy

Apr. 17, 2014 Rise Set
Actual Time 6:41 AM EDT 7:49 PM EDT
Civil Twilight 6:14 AM EDT 8:15 PM EDT
Nautical Twilight 5:43 AM EDT 8:47 PM EDT
Astronomical Twilight 5:11 AM EDT 9:19 PM EDT
Moon 10:28 PM EDT (4/17) 8:15 AM EDT (4/17)
Length of Visible Light 14h 00m
Length of Day
13h 08m
Waning Gibbous, 94% of the Moon is Illuminated
Apr 17
Waning Gibbous
Apr 22
Last Quarter
Apr 29
New
May 6
First Quarter
May 14
Full

Hourly Weather History & Observations

Time (EDT) Temp. Windchill Dew Point Humidity Pressure Visibility Wind Dir Wind Speed Gust Speed Precip Events Conditions
12:53 AM 41.0 °F 38.0 °F 30.9 °F 67% 30.44 in 10.0 mi NE 4.6 mph - N/A   Clear
1:53 AM 39.0 °F 35.7 °F 30.9 °F 73% 30.44 in 10.0 mi ENE 4.6 mph - N/A   Clear
2:53 AM 36.0 °F 31.1 °F 30.9 °F 82% 30.43 in 10.0 mi North 5.8 mph - N/A   Clear
3:53 AM 36.0 °F 30.3 °F 30.9 °F 82% 30.44 in 10.0 mi NNE 6.9 mph - N/A   Clear
4:53 AM 35.1 °F 28.6 °F 30.0 °F 82% 30.45 in 10.0 mi NNE 8.1 mph - N/A   Clear
5:53 AM 36.0 °F 28.0 °F 30.0 °F 79% 30.45 in 10.0 mi NNE 11.5 mph - N/A   Clear
6:53 AM 36.0 °F 27.5 °F 30.9 °F 82% 30.46 in 10.0 mi NNE 12.7 mph - N/A   Clear
7:53 AM 39.9 °F 32.5 °F 32.0 °F 73% 30.48 in 10.0 mi NNE 12.7 mph - N/A   Clear
8:53 AM 45.0 °F 38.2 °F 30.9 °F 58% 30.49 in 10.0 mi NNE 15.0 mph - N/A   Clear
9:53 AM 50.0 °F - 32.0 °F 50% 30.50 in 10.0 mi NNE 16.1 mph 23.0 mph N/A   Clear
10:53 AM 52.0 °F - 33.1 °F 49% 30.51 in 10.0 mi NNE 13.8 mph - N/A   Clear
11:53 AM 55.9 °F - 36.0 °F 47% 30.50 in 10.0 mi NE 9.2 mph - N/A   Clear
1:53 PM 62.1 °F - 39.9 °F 44% 30.46 in 10.0 mi NNE 12.7 mph 17.3 mph N/A   Clear
2:53 PM 64.0 °F - 39.9 °F 41% 30.45 in 10.0 mi NNE 11.5 mph 20.7 mph N/A   Clear
3:53 PM 64.9 °F - 39.9 °F 40% 30.42 in 10.0 mi NNE 9.2 mph - N/A   Clear
4:53 PM 66.0 °F - 39.0 °F 37% 30.41 in 10.0 mi NE 8.1 mph - N/A   Clear
5:53 PM 64.9 °F - 39.0 °F 39% 30.39 in 10.0 mi ENE 10.4 mph - N/A   Clear
6:53 PM 63.0 °F - 41.0 °F 45% 30.38 in 10.0 mi ENE 9.2 mph - N/A   Clear
7:53 PM 59.0 °F - 42.1 °F 53% 30.40 in 10.0 mi NE 5.8 mph - N/A   Clear
8:53 PM 54.0 °F - 43.0 °F 66% 30.40 in 10.0 mi NE 6.9 mph - N/A   Clear
9:53 PM 53.1 °F - 43.0 °F 69% 30.42 in 10.0 mi NNE 4.6 mph - N/A   Clear
10:53 PM 51.1 °F - 43.0 °F 74% 30.42 in 10.0 mi NE 5.8 mph - N/A   Clear
11:53 PM 52.0 °F - 44.1 °F 74% 30.42 in 10.0 mi NE 8.1 mph - N/A   Clear